Weather History for Valdosta Regional, GA

Change the Weather History Date:

Monday, October 22, 2012

  Actual Average Record
Temperature  
Mean Temperature 67 °F 67 °F  
Max Temperature 83 °F 79 °F 86 °F (2007)
Min Temperature 51 °F 55 °F 39 °F (2011)
Degree Days  
Heating Degree Days 0 2  
Month to date heating degree days 1 15  
Since 1 July heating degree days 1 16  
Cooling Degree Days 2 4  
Month to date cooling degree days 198 127  
Year to date cooling degree days 3118 2352  
Growing Degree Days 17 (Base 50)    
Moisture  
Dew Point 52 °F    
Average Humidity 64    
Maximum Humidity 89    
Minimum Humidity 39    
Precipitation  
Precipitation 0.00 in 0.10 in 0.49 in (2013)
Month to date precipitation 1.11 2.27  
Year to date precipitation 39.49 43.94  
Sea Level Pressure  
Sea Level Pressure 30.16 in    
Wind  
Wind Speed 4 mph (East)    
Max Wind Speed 12 mph    
Max Gust Speed 17 mph    
Visibility 10 miles    
Events      
T = Trace of Precipitation, MM = Missing Value Source: NWS Daily Summary

Daily Weather History Graph

Daily Weather History Graph

Search for Another Location

Airport:

Trip Planner

Search our weather history database for the weather conditions in past years. The results will help you decide how hot, cold, wet, or windy it might be!

Date:

Astronomy

Oct. 22, 2012 Rise Set
Actual Time 7:40 AM EDT 6:53 PM EDT
Civil Twilight 7:16 AM EDT 7:18 PM EDT
Nautical Twilight 6:48 AM EDT 7:46 PM EDT
Astronomical Twilight 6:20 AM EDT 8:14 PM EDT
Moon 2:35 PM EDT (10/22) 12:54 AM EDT (10/22)
Length of Visible Light 12h 01m
Length of Day
11h 12m
First Quarter, 56% of the Moon is Illuminated
Oct 22
First Quarter
Oct 29
Full
Nov 6
Last Quarter
Nov 13
New
Nov 20
First Quarter

Hourly Weather History & Observations

Time (EDT) Temp. Heat Index Dew Point Humidity Pressure Visibility Wind Dir Wind Speed Gust Speed Precip Events Conditions
12:53 AM 55.9 °F - 48.9 °F 77% 30.15 in 10.0 mi Calm Calm - N/A   Clear
1:53 AM 53.1 °F - 48.9 °F 86% 30.14 in 10.0 mi Calm Calm - N/A   Clear
2:53 AM 52.0 °F - 48.0 °F 86% 30.14 in 10.0 mi Calm Calm - N/A   Clear
3:53 AM 52.0 °F - 48.0 °F 86% 30.14 in 10.0 mi Calm Calm - N/A   Clear
4:53 AM 52.0 °F - 46.9 °F 83% 30.14 in 10.0 mi Calm Calm - N/A   Clear
5:53 AM 52.0 °F - 48.0 °F 86% 30.15 in 10.0 mi Calm Calm - N/A   Clear
7:53 AM 52.0 °F - 48.0 °F 86% 30.19 in 10.0 mi Calm Calm - N/A   Partly Cloudy
8:53 AM 61.0 °F - 55.0 °F 81% 30.21 in 10.0 mi ENE 4.6 mph - N/A   Scattered Clouds
10:53 AM 73.9 °F - 52.0 °F 46% 30.22 in 10.0 mi ENE 9.2 mph - N/A   Scattered Clouds
11:53 AM 75.9 °F - 53.1 °F 45% 30.21 in 10.0 mi East 8.1 mph - N/A   Scattered Clouds
12:53 PM 78.1 °F - 55.0 °F 45% 30.19 in 10.0 mi ENE 8.1 mph - N/A   Scattered Clouds
1:53 PM 80.1 °F 80.4 °F 57.0 °F 45% 30.16 in 10.0 mi Variable 5.8 mph - N/A   Scattered Clouds
2:53 PM 82.0 °F 81.6 °F 55.9 °F 41% 30.13 in 10.0 mi East 3.5 mph - N/A   Scattered Clouds
3:53 PM 82.0 °F 81.4 °F 55.0 °F 39% 30.12 in 10.0 mi East 8.1 mph - N/A   Scattered Clouds
4:53 PM 81.0 °F 80.5 °F 54.0 °F 39% 30.11 in 10.0 mi East 5.8 mph - N/A   Scattered Clouds
5:53 PM 79.0 °F - 53.1 °F 40% 30.12 in 10.0 mi East 5.8 mph - N/A   Scattered Clouds
6:53 PM 75.0 °F - 52.0 °F 44% 30.13 in 10.0 mi ENE 3.5 mph - N/A   Clear
7:53 PM 68.0 °F - 52.0 °F 56% 30.15 in 10.0 mi Calm Calm - N/A   Clear
8:53 PM 68.0 °F - 48.9 °F 50% 30.17 in 10.0 mi ENE 3.5 mph - N/A   Clear
9:53 PM 66.0 °F - 53.1 °F 63% 30.18 in 10.0 mi East 4.6 mph - N/A   Clear
10:53 PM 66.0 °F - 54.0 °F 65% - 10.0 mi ESE 4.6 mph - N/A   Clear
11:53 PM 62.1 °F - 55.0 °F 78% - 10.0 mi East 3.5 mph - N/A   Clear